TimeCDT,TemperatureF,Dew PointF,Humidity,Sea Level PressureIn,VisibilityMPH,Wind Direction,Wind SpeedMPH,Gust SpeedMPH,PrecipitationIn,Events,Conditions,WindDirDegrees,DateUTC
12:14 AM,51.4,38.5,61,29.92,10.0,SSW,16.1,21.9,N/A,,Overcast,200,2012-10-13 05:14:00
12:54 AM,51.1,39.2,64,29.91,10.0,SSW,12.7,23.0,N/A,,Overcast,200,2012-10-13 05:54:00
1:14 AM,50.9,39.2,64,29.91,10.0,SSW,13.8,24.2,N/A,,Overcast,200,2012-10-13 06:14:00
1:34 AM,50.5,40.1,67,29.90,10.0,SSW,15.0,-,N/A,,Overcast,200,2012-10-13 06:34:00
1:54 AM,50.0,41.0,71,29.89,10.0,South,17.3,28.8,N/A,,Overcast,190,2012-10-13 06:54:00
2:14 AM,49.5,41.4,74,29.88,10.0,South,10.4,23.0,N/A,,Overcast,180,2012-10-13 07:14:00
2:34 AM,49.1,41.9,76,29.86,10.0,South,9.2,20.7,N/A,,Overcast,190,2012-10-13 07:34:00
2:54 AM,48.6,42.4,79,29.84,10.0,South,13.8,18.4,N/A,,Overcast,180,2012-10-13 07:54:00
3:14 AM,48.6,42.4,79,29.83,10.0,South,13.8,17.3,N/A,,Overcast,190,2012-10-13 08:14:00
3:34 AM,49.1,42.1,77,29.83,7.0,South,12.7,19.6,N/A,,Overcast,190,2012-10-13 08:34:00
3:54 AM,49.1,41.5,75,29.82,10.0,South,8.1,-,N/A,,Overcast,190,2012-10-13 08:54:00
4:14 AM,49.3,41.4,74,29.81,10.0,SSW,10.4,-,N/A,,Mostly Cloudy,200,2012-10-13 09:14:00
4:34 AM,49.5,41.4,74,29.81,10.0,South,11.5,-,N/A,,Mostly Cloudy,190,2012-10-13 09:34:00
4:53 AM,49.5,41.4,74,29.79,10.0,South,12.7,20.7,N/A,,Mostly Cloudy,190,2012-10-13 09:53:00
5:14 AM,49.5,42.4,77,29.78,7.0,South,10.4,-,N/A,,Scattered Clouds,190,2012-10-13 10:14:00
5:34 AM,49.6,42.8,77,29.78,10.0,South,6.9,-,N/A,,Scattered Clouds,180,2012-10-13 10:34:00
5:53 AM,49.6,43.2,78,29.77,7.0,South,8.1,-,N/A,Thunderstorm,Overcast,190,2012-10-13 10:53:00
6:14 AM,49.5,43.9,81,29.78,7.0,South,11.5,-,N/A,,Overcast,190,2012-10-13 11:14:00
6:34 AM,49.1,44.6,84,29.77,7.0,South,10.4,-,N/A,,Overcast,190,2012-10-13 11:34:00
6:54 AM,48.7,44.6,86,29.77,7.0,South,9.2,-,N/A,,Overcast,170,2012-10-13 11:54:00
7:14 AM,48.6,44.6,86,29.76,7.0,South,8.1,-,N/A,,Overcast,180,2012-10-13 12:14:00
7:35 AM,48.7,45.0,87,29.76,7.0,South,5.8,-,N/A,,Overcast,170,2012-10-13 12:35:00
7:54 AM,49.1,45.5,87,29.75,5.0,South,6.9,-,N/A,,Overcast,190,2012-10-13 12:54:00
8:13 AM,48.7,45.7,89,29.74,4.0,South,5.8,-,N/A,,Overcast,180,2012-10-13 13:13:00
8:54 AM,49.1,46.4,90,29.74,4.0,SSW,4.6,-,N/A,,Overcast,200,2012-10-13 13:54:00
9:33 AM,50.0,46.6,88,29.72,4.0,SSE,8.1,-,N/A,,Overcast,160,2012-10-13 14:33:00
9:54 AM,49.6,46.8,90,29.72,3.0,South,6.9,-,N/A,,Overcast,170,2012-10-13 14:54:00
10:34 AM,50.4,47.3,89,29.72,3.0,South,5.8,-,N/A,,Overcast,190,2012-10-13 15:34:00
10:54 AM,51.1,48.6,91,29.71,3.0,South,5.8,-,0.02,Rain,Light Rain,170,2012-10-13 15:54:00
11:14 AM,51.4,49.3,92,29.71,1.8,South,5.8,-,N/A,,Overcast,180,2012-10-13 16:14:00
11:34 AM,52.0,50.0,93,29.70,2.0,South,5.8,-,N/A,,Overcast,170,2012-10-13 16:34:00
11:55 AM,52.7,50.4,92,29.70,3.0,Calm,Calm,-,N/A,,Overcast,0,2012-10-13 16:55:00
12:14 PM,53.8,51.1,91,29.70,4.0,SSW,3.5,-,N/A,,Overcast,200,2012-10-13 17:14:00
12:34 PM,55.4,51.4,87,29.70,5.0,Calm,Calm,-,N/A,,Overcast,0,2012-10-13 17:34:00
12:53 PM,55.6,51.8,87,29.70,5.0,Calm,Calm,-,N/A,,Overcast,0,2012-10-13 17:53:00
1:14 PM,56.7,52.0,84,29.69,5.0,Calm,Calm,-,N/A,,Haze,0,2012-10-13 18:14:00
1:34 PM,58.5,50.9,76,29.68,10.0,West,4.6,-,N/A,,Overcast,270,2012-10-13 18:34:00
1:54 PM,59.0,51.1,75,29.67,10.0,WSW,6.9,-,N/A,,Overcast,250,2012-10-13 18:54:00
2:14 PM,59.5,50.7,73,29.66,10.0,WSW,4.6,-,N/A,,Overcast,250,2012-10-13 19:14:00
2:34 PM,60.8,50.7,69,29.66,10.0,West,5.8,-,N/A,,Overcast,260,2012-10-13 19:34:00
2:54 PM,61.2,50.5,68,29.66,10.0,West,5.8,-,N/A,,Mostly Cloudy,260,2012-10-13 19:54:00
3:13 PM,62.8,50.0,63,29.67,10.0,West,5.8,-,N/A,,Mostly Cloudy,260,2012-10-13 20:13:00
3:34 PM,61.7,49.6,65,29.67,10.0,Calm,Calm,-,N/A,,Mostly Cloudy,0,2012-10-13 20:34:00
3:54 PM,62.4,50.0,64,29.66,10.0,WNW,6.9,-,N/A,,Overcast,290,2012-10-13 20:54:00
4:14 PM,63.0,49.6,62,29.66,10.0,West,3.5,-,N/A,,Scattered Clouds,260,2012-10-13 21:14:00
4:34 PM,63.1,49.1,60,29.67,10.0,Calm,Calm,-,N/A,,Clear,0,2012-10-13 21:34:00
4:54 PM,62.6,48.9,61,29.66,10.0,Calm,Calm,-,N/A,,Clear,0,2012-10-13 21:54:00
5:14 PM,63.1,48.7,59,29.66,10.0,North,3.5,-,N/A,,Clear,350,2012-10-13 22:14:00
5:34 PM,63.0,48.6,59,29.67,10.0,NNW,3.5,-,N/A,,Clear,340,2012-10-13 22:34:00
5:54 PM,62.4,48.4,60,29.68,10.0,Calm,Calm,-,N/A,,Clear,0,2012-10-13 22:54:00
6:14 PM,60.8,48.2,63,29.68,10.0,Calm,Calm,-,N/A,,Clear,0,2012-10-13 23:14:00
6:33 PM,58.1,47.3,67,29.68,10.0,North,3.5,-,N/A,,Clear,10,2012-10-13 23:33:00
7:14 PM,54.3,45.7,73,29.69,10.0,Calm,Calm,-,N/A,,Clear,0,2012-10-14 00:14:00
7:34 PM,52.3,44.1,73,29.71,10.0,Calm,Calm,-,N/A,,Clear,0,2012-10-14 00:34:00
7:54 PM,50.5,44.4,80,29.72,10.0,Calm,Calm,-,N/A,,Clear,0,2012-10-14 00:54:00
8:14 PM,48.2,44.1,86,29.74,7.0,Calm,Calm,-,N/A,,Clear,0,2012-10-14 01:14:00
8:34 PM,48.4,43.3,83,29.75,7.0,Calm,Calm,-,N/A,,Clear,0,2012-10-14 01:34:00
8:54 PM,47.7,43.7,86,29.75,7.0,Calm,Calm,-,N/A,,Clear,0,2012-10-14 01:54:00
9:14 PM,46.8,43.7,89,29.75,7.0,Calm,Calm,-,N/A,,Clear,0,2012-10-14 02:14:00
9:34 PM,44.8,41.9,90,29.75,7.0,North,3.5,-,N/A,,Clear,350,2012-10-14 02:34:00
9:54 PM,45.7,43.2,91,29.75,7.0,North,3.5,-,N/A,,Clear,360,2012-10-14 02:54:00
10:14 PM,45.9,42.6,88,29.75,7.0,North,4.6,-,N/A,,Clear,10,2012-10-14 03:14:00
11:14 PM,45.7,43.5,92,29.76,5.0,Calm,Calm,-,N/A,,Clear,0,2012-10-14 04:14:00
11:34 PM,43.0,41.4,94,29.76,4.0,Calm,Calm,-,N/A,,Clear,0,2012-10-14 04:34:00